This is the latest recevied weather packets stored in our database for station/object KG2V. If no packets are shown the sender has not sent any weather packets the latest 1 day(s).
| Time | Temp. | Humidity | Pressure | Rain* | Wind** | Luminosity | Snow |
|---|---|---|---|---|---|---|---|
| 1777994038 | 18.89° C | 66% | 999.2 hPa | 0 mm | 1.34 m/s, 226° | 87 W/m² | - |
| 1777993730 | 19.44° C | 65% | 999 hPa | 0 mm | 1.79 m/s, 264° | 163 W/m² | - |
| 1777993427 | 18.89° C | 67% | 999.4 hPa | 0 mm | 1.34 m/s, 217° | 216 W/m² | - |
| 1777993126 | 18.89° C | 67% | 999.2 hPa | 0 mm | 0.89 m/s, 157° | 120 W/m² | - |
| 1777992825 | 18.89° C | 67% | 999.4 hPa | 0 mm | 1.34 m/s, 261° | 84 W/m² | - |
| 1777992522 | 18.89° C | 66% | 999.4 hPa | 0 mm | 0.89 m/s, 228° | 83 W/m² | - |
| 1777992221 | 19.44° C | 66% | 999.2 hPa | 0 mm | 0.89 m/s, 247° | 106 W/m² | - |
| 1777991917 | 20° C | 65% | 999.4 hPa | 0 mm | 0.89 m/s, 238° | 156 W/m² | - |
| 1777991615 | 20.56° C | 62% | 999.3 hPa | 0 mm | 1.79 m/s, 260° | 30 W/m² | - |
| 1777991311 | 20.56° C | 61% | 999.2 hPa | 0 mm | 3.13 m/s, 227° | 77 W/m² | - |
| 1777991009 | 21.11° C | 60% | 998.9 hPa | 0 mm | 0.45 m/s, 237° | 201 W/m² | - |
| 1777990706 | 20.56° C | 60% | 998.8 hPa | 0 mm | 2.68 m/s, 273° | 220 W/m² | - |
| 1777990404 | 20.56° C | 62% | 999 hPa | 0 mm | 1.79 m/s, 249° | 221 W/m² | - |
| 1777990100 | 20.56° C | 63% | 998.7 hPa | 0 mm | 1.79 m/s, 174° | 176 W/m² | - |
| 1777989796 | 20.56° C | 61% | 998.9 hPa | 0 mm | 3.13 m/s, 273° | 126 W/m² | - |
| 1777989494 | 20.56° C | 62% | 998.9 hPa | 0 mm | 1.34 m/s, 254° | 179 W/m² | - |
| 1777989189 | 20.56° C | 63% | 998.8 hPa | 0 mm | 3.13 m/s, 229° | 114 W/m² | - |
| 1777988886 | 20.56° C | 61% | 998.7 hPa | 0 mm | 3.13 m/s, 193° | 133 W/m² | - |
| 1777988583 | 20.56° C | 62% | 998.7 hPa | 0 mm | 1.79 m/s, 172° | 133 W/m² | - |
| 1777988279 | 20.56° C | 62% | 998.5 hPa | 0 mm | 2.24 m/s, 223° | 169 W/m² | - |
| 1777987976 | 20.56° C | 61% | 998.5 hPa | 0 mm | 1.79 m/s, 206° | 174 W/m² | - |
| 1777987672 | 20.56° C | 62% | 998.5 hPa | 0 mm | 1.79 m/s, 245° | 167 W/m² | - |
| 1777987369 | 20.56° C | 62% | 998.6 hPa | 0 mm | 2.24 m/s, 213° | 161 W/m² | - |
| 1777987067 | 20° C | 63% | 998.4 hPa | 0 mm | 1.34 m/s, 185° | 171 W/m² | - |
| 1777986764 | 20° C | 63% | 998.7 hPa | 0 mm | 1.79 m/s, 189° | 144 W/m² | - |
* Rain latest hour (hover to see other rain measurements)
** Current wind speed in m/s (hover to see current wind gust speed)